Simultaneous Nadir Overpasses (SNOs) Predictions

Prediction of SNOs between METOP-B and NOAA-19 Satellite Orbit:

Table of predicted SNOs for the next 14.0 days since TLE Epoch: 11/30/2013
Index Date (METOP-B) Time (METOP-B) Lat,Lon (METOP-B) SZA (METOP-B ) Date (NOAA-19) Time (NOAA-19) Lat,Lon (NOAA-19) SZA (NOAA-19 ) Distance(km) Time Diff (sec)
1 12/02/2013 06:29:58 -73.71,-103.12 84.39 12/02/2013 06:28:44 -73.70,-103.58 84.39 14.41 74
2 12/02/2013 07:20:40 73.57, 63.89 95.49 12/02/2013 07:19:40 73.58, 63.96 95.50 2.66 60
3 12/02/2013 08:11:22 -73.59,-128.73 84.49 12/02/2013 08:10:46 -73.59,-128.84 84.49 3.39 36
4 12/02/2013 09:02:02 73.55, 38.51 95.48 12/02/2013 09:01:44 73.57, 38.47 95.50 2.58 18
5 12/02/2013 09:52:45 -73.53,-154.22 84.54 12/02/2013 09:52:49 -73.53,-154.22 84.54 0.73 4
6 12/02/2013 10:43:24 73.53, 13.13 95.47 12/02/2013 10:43:47 73.51, 13.09 95.45 2.61 23
7 12/02/2013 11:34:07 -73.51,-179.60 84.55 12/02/2013 11:34:53 -73.52,-179.71 84.53 3.81 46
8 12/02/2013 12:24:47 73.46, -12.37 95.42 12/02/2013 12:25:50 73.45, -12.29 95.40 2.71 63
9 12/02/2013 13:15:39 -72.99, 153.91 85.04 12/02/2013 13:16:48 -73.07, 155.81 84.99 62.35 69
10 12/12/2013 09:45:49 -73.76,-151.96 83.20 12/12/2013 09:44:35 -73.77,-152.62 83.17 20.76 74
11 12/12/2013 10:36:31 73.60, 15.01 96.65 12/12/2013 10:35:32 73.62, 14.99 96.67 1.92 59
12 12/12/2013 11:27:14 -73.59,-177.69 83.36 12/12/2013 11:26:35 -73.57,-177.65 83.38 2.98 39
13 12/12/2013 12:17:53 73.58, -10.37 96.64 12/12/2013 12:17:35 73.56, -10.39 96.62 2.49 18
14 12/12/2013 13:08:36 -73.57, 156.93 83.37 12/12/2013 13:08:39 -73.56, 156.85 83.38 2.96 3
15 12/12/2013 13:59:16 73.51, -35.87 96.58 12/12/2013 13:59:38 73.50, -35.77 96.57 3.25 22
16 12/12/2013 14:49:59 -73.50, 131.43 83.43 12/12/2013 14:50:42 -73.50, 131.46 83.44 0.98 43
17 12/12/2013 15:40:38 73.50, -61.25 96.57 12/12/2013 15:41:42 73.50, -61.27 96.56 0.65 64
18 12/12/2013 16:31:29 -73.09, 105.16 83.82 12/12/2013 16:32:39 -73.15, 106.76 83.80 52.11 70




NCC Satellite Simultaneous Nadir Overpasses (SNOs) Prediction Service
